SCP
0 0 0 0 0 0 0 0 0 0 0 0 0 0 0 0 0 0 0 0 0 0 0 0 0 0 0 0 0 0 0 0 0 0 0 0 0 0 0 0 0 0 0 0
0 0 0 0 0 0 0 0 0 0 0 0 0 0 0 0 0 0 0 0 0 0 0 0 0 0 0 0 0 0 0 0 0 0 0 0 0 0 0 0 0 0 0 0
0 0 0 0 0 0 0 0 0 0 0 0 0 0 0 0 0 0 0 0 0 0 0 0 0 0 0 0 0 0 0 0 0 0 0 0 0 0 0 0 0 0 0 0
0 0 0 0 0 0 0 0 0 0 0 0 0 0 0 0 0 0 0 0 0 0 0 0 0 0 0 0 0 0 0 0 0 0 0 0 0 0 0 0 0 0 0 0
0 0 0 0 0 0 0 0 0 0 0 0 0 0 0 0 0 0 0 0 0 0 0 0 0 0 0 0 0 0 0 0 0 0 0 0 0 0 0 0 0 0 0 0
0 0 0 0 0 0 0 0 0 0 0 0 0 0 0 0 0 0 0 0 0 0 0 0 0 0 0 0 0 0 0 0 0 0 0 0 0 0 0 0 0 0 0 0
0 0 0 0 0 0 0 0 0 0 0 0 0 0 0 0 0 0 0 0 0 0 0 0 0 0 0 0 0 0 0 0 0 0 0 0 0 0 0 0 0 0 0 0
0 0 0 0 0 0 0 0 0 0 0 0 0 0 0 0 0 0 0 0 0 0 0 0 0 0 0 0 0 0 0 0 0 0 0 0 0 0 0 0 0 0 0 0
0 0 0 0 0 0 0 0 0 0 0 0 0 0 0 0 0 0 0 0 0 0 0 0 0 0 0 0 0 0 0 0 0 0 0 0 0 0 0 0 0 0 0 0
0 0 0 0 0 0 0 0 0 0 0 0 0 0 0 0 0 0 0 0 0 0 0 0 0 0 0 0 0 0 0 0 0 0 0 0 0 0 0 0 0 0 0 0
0 0 0 0 0 0 0 0 0 0 0 0 0 0 0 0 0 0 0 0 0 0 0 0 0 0 0 0 0 0 0 0 0 0 0 0 0 0 0 0 0 0 0 0
0 0 0 0 0 0 0 0 0 0 0 0 0 0 0 0 0 0 0 0 0 0 0 0 0 0 0 0 0 0 0 0 0 0 0 0 0 0 0 0 0 0 0 0
0 0 0 0 0 0 0 0 0 0 0 0 0 0 0 0 0 0 0 0 0 0 0 0 0 0 0 0 0 0 0 0 0 0 0 0 0 0 0 0 0 0 0 0
0 0 0 0 0 0 0 0 0 0 0 0 0 0 0 0 0 0 0 0 0 0 0 0 0 0 0 0 0 0 0 0 0 0 0 0 0 0 0 0 0 0 0 0
0 0 0 0 0 0 0 0 0 0 0 0 0 0 0 0 0 0 0 0 0 0 0 0 0 0 0 0 0 0 0 0 0 0 0 0 0 0 0 0 0 0 0 0
0 0 0 0 0 0 0 0 0 0 0 0 0 0 0 0 0 0 0 0 0 0 0 0 0 0 0 0 0 0 0 0 0 0 0 0 0 0 0 0 0 0 0 0
0 0 0 0 0 0 0 0 0 0 0 0 0 0 0 0 0 0 0 0 0 0 0 0 0 0 0 0 0 0 0 0 0 0 0 0 0 0 0 0 0 0 0 0
0 0 0 0 0 0 0 0 0 0 0 0 0 0 0 0 0 0 0 0 0 0 0 0 0 0 0 0 0 0 0 0 0 0 0 0 0 0 0 0 0 0 0 0
0 0 0 0 0 0 0 0 0 0 0 0 0 0 0 0 0 0 0 0 0 0 0 0 0 0 0 0 0 0 0 0 0 0 0 0 0 0 0 0 0 0 0 0
0 0 0 0 0 0 0 0 0 0 0 0 0 0 0 0 0 0 0 0 0 0 0 0 0 0 0 0 0 0 0 0 0 0 0 0 0 0 0 0 0 0 0 0
0 0 0 0 0 0 0 0 0 0 0 0 0 0 0 0 0 0 0 0 0 0 0 0 0 0 0 0 0 0 0 0 0 0 0 0 0 0 0 0 0 0 0 0
0 0 0 0 0 0 0 0 0 0 0 0 0 0 0 0 0 0 0 0 0 0 0 0 0 0 0 0 0 0 0 0 0 0 0 0 0 0 0 0 0 0 0 0
0 0 0 0 0 0 0 0 0 0 0 0 0 0 0 0 0 0 0 0 0 0 0 0 0 0 0 0 0 0 0 0 0 0 0 0 0 0 0 0 0 0 0 0
0 0 0 0 0 0 0 0 0 0 0 0 0 0 0 0 0 0 0 0 0 0 0 0 0 0 0 0 0 0 0 0 0 0 0 0 0 0 0 0 0 0 0 0
0 0 0 0 0 0 0 0 0 0 0 0 0 0 0 0 0 0 0 0 0 0 0 0 0 0 0 0 0 0 0 0 0 0 0 0 0 0 0 0 0 0 0 0
0 0 0 0 0 0 0 0 0 0 0 0 0 0 0 0 0 0 0 0 0 0 0 0 0 0 0 0 0 0 0 0 0 0 0 0 0 0 0 0 0 0 0 0
0 0 0 0 0 0 0 0 0 0 0 0 0 0 0 0 0 0 0 0 0 0 0 0 0 0 0 0 0 0 0 0 0 0 0 0 0 0 0 0 0 0 0 0
Wind_Speed
4 4 3 5 7 5 6 7 7 7 8 10 8 6 5 4 4 3 3 3 2 2 2 2 3 3 3 3 3 4 4 4 4 4 4 4 4 4 5 5 5 5 5 5
3 3 4 6 9 8 8 7 9 9 12 9 6 4 4 5 5 5 5 5 4 3 2 2 2 3 3 3 3 3 3 4 4 4 4 4 4 4 4 5 5 5 5 6
4 5 4 8 9 9 7 7 7 10 10 3 3 6 7 7 6 7 6 5 5 4 3 3 2 2 2 3 3 3 3 3 4 4 5 5 5 5 5 5 5 5 5 6
2 4 5 8 1 5 6 8 9 9 7 5 7 6 5 5 6 7 6 6 5 4 3 2 1 1 2 2 2 3 3 3 4 4 5 5 5 5 5 5 5 5 5 6
1 2 11 10 4 5 5 8 9 11 10 7 3 3 5 5 6 8 7 5 5 4 3 2 2 1 1 2 2 3 3 4 4 4 5 5 5 5 5 5 5 5 5 5
3 2 8 7 1 3 2 8 6 8 9 6 3 3 6 3 4 5 4 3 3 2 2 2 2 1 1 2 2 3 4 4 4 4 5 5 5 6 5 5 5 6 6 5
5 6 13 9 2 4 3 8 3 6 7 6 8 8 4 2 3 4 4 3 3 3 3 3 2 1 2 3 3 3 3 4 4 4 5 5 5 5 5 5 5 6 6 6
6 6 14 6 7 9 10 4 3 4 5 7 7 5 3 3 4 4 3 3 3 3 3 2 2 2 3 4 3 2 3 4 4 5 4 4 5 5 5 5 5 6 6 6
13 13 6 7 10 7 3 4 4 4 5 5 6 6 5 5 5 5 5 4 3 4 3 2 2 2 4 4 2 2 3 4 4 5 5 4 4 5 5 4 4 5 5 6
8 14 11 10 10 9 8 8 7 5 5 5 7 7 6 6 5 5 5 4 3 3 4 4 3 3 3 2 2 2 3 4 4 4 4 4 4 4 4 4 4 5 5 6
10 12 9 10 12 14 12 9 8 8 7 8 8 8 7 7 6 6 5 4 3 4 5 5 3 3 2 2 2 2 4 4 4 4 4 4 4 4 5 5 6 6 6 6
14 12 9 10 7 7 9 10 10 9 8 7 8 9 8 7 6 5 5 4 4 5 5 5 4 4 3 2 2 3 3 3 3 3 3 4 4 5 8 8 11 12 11 10
15 10 10 10 9 7 8 10 9 9 10 9 8 8 8 7 5 5 5 5 6 6 6 4 4 4 3 2 3 3 4 4 3 3 3 4 4 5 6 7 9 10 11 12
14 10 11 12 13 10 9 9 7 6 7 7 7 5 5 5 5 6 7 7 5 4 4 4 4 5 3 3 3 3 3 4 3 3 3 4 4 4 5 6 7 6 8 12
16 15 15 10 8 8 7 5 6 7 7 6 5 5 6 7 7 8 6 4 3 4 4 4 5 5 2 3 3 3 3 3 3 3 3 3 4 4 4 5 6 6 6 8
10 10 11 11 13 12 8 7 9 10 8 7 6 7 7 7 6 5 4 4 4 6 6 5 6 4 3 3 3 3 3 4 3 3 3 3 3 4 4 4 5 5 6 6
9 11 11 11 13 12 11 11 11 10 8 8 8 7 5 4 4 5 4 4 5 5 5 5 5 3 3 3 3 3 3 3 3 3 3 3 3 4 4 4 5 5 6 7
15 16 13 11 10 11 10 9 9 9 9 8 5 5 6 7 7 7 5 3 3 4 5 5 4 3 3 3 3 2 2 2 2 3 3 3 4 4 4 4 5 6 6 6
13 14 13 12 11 9 8 8 8 8 7 5 6 7 7 7 6 4 3 4 5 6 5 4 5 3 3 4 3 2 2 3 3 3 3 4 4 3 4 4 5 5 5 5
10 10 10 10 8 7 8 7 5 5 5 5 5 5 5 5 4 4 4 5 6 4 3 3 3 3 3 4 3 2 3 3 3 3 3 3 4 4 4 4 5 5 5 5
9 9 8 8 7 6 6 5 5 5 5 5 7 7 6 5 4 4 4 5 4 3 3 3 3 2 2 2 3 2 2 3 3 3 3 4 4 4 4 4 4 4 4 5
7 7 7 6 5 5 4 3 4 5 4 5 5 5 4 4 4 4 5 4 2 3 2 3 3 3 3 3 2 2 3 3 3 3 3 4 4 4 4 4 4 4 4 5
6 5 5 5 5 3 2 2 4 5 5 6 6 6 6 5 4 4 4 3 2 3 3 3 4 4 3 2 2 3 3 3 3 4 4 4 4 4 4 5 4 4 4 5
4 3 3 2 3 3 3 3 3 3 3 3 4 5 4 3 2 3 2 2 3 4 3 4 5 4 3 2 2 2 3 3 3 4 4 4 4 4 4 4 4 4 5 5
3 3 2 3 4 4 3 3 2 2 2 2 2 2 2 3 3 3 2 3 3 3 2 3 4 3 2 2 3 3 3 3 3 3 4 4 4 4 4 4 4 5 4 4
3 3 3 4 3 3 3 3 3 3 3 2 1 1 1 1 2 2 2 2 3 3 2 2 2 2 2 3 3 3 3 3 3 3 4 4 4 4 4 4 5 5 4 4
2 2 2 1 2 2 3 3 4 4 4 4 3 2 2 2 2 2 2 2 2 2 2 2 2 2 2 2 2 2 2 2 3 3 3 3 3 4 4 5 4 4 4 5
Wind_Direction
262 278 272 257 253 225 209 212 220 248 254 265 257 252 251 246 242 240 241 247 250 264 288 306 322 334 345 346 349 352 356 356 355 351 351 352 352 351 351 350 346 342 340 336
299 314 295 270 253 237 233 230 239 259 268 261 261 251 247 235 226 232 236 240 242 249 260 277 300 319 330 331 334 345 348 344 342 346 349 348 346 345 347 345 341 340 335 332
291 321 349 277 239 210 213 215 204 229 248 264 258 240 232 226 222 231 238 239 235 234 237 251 269 290 306 312 323 335 340 339 341 343 341 338 337 341 340 336 335 333 328 328
320 12 259 248 224 195 216 239 224 238 254 247 246 255 244 227 223 234 236 235 233 230 235 247 255 280 302 316 320 324 331 333 335 336 331 331 333 332 330 327 324 320 319 317
112 285 282 290 249 188 202 266 229 231 249 253 266 305 278 238 221 227 228 223 223 221 219 226 241 257 284 306 313 317 319 320 324 323 321 322 322 321 318 317 314 310 311 315
142 211 251 257 207 173 116 282 246 214 232 228 169 265 267 236 216 223 221 214 212 205 197 222 247 240 265 289 298 300 306 312 316 316 312 311 311 312 312 310 308 311 311 313
191 233 262 253 195 134 175 252 250 204 215 200 205 227 253 224 211 212 213 212 194 193 212 227 228 213 260 279 282 297 312 314 315 315 312 306 305 307 309 309 311 309 307 307
170 210 254 207 155 193 222 255 243 225 215 213 229 250 253 234 223 216 216 213 196 205 230 232 206 208 253 269 288 309 311 309 309 311 309 309 307 307 309 309 307 305 305 305
196 218 243 188 207 228 237 249 250 241 235 220 233 246 247 239 232 231 225 221 208 209 233 244 227 218 246 271 291 299 302 298 301 307 309 310 307 306 310 308 301 301 303 304
249 258 254 246 249 256 245 242 251 247 243 225 235 245 245 242 241 240 234 224 211 204 230 252 248 245 248 269 281 279 282 289 294 300 305 309 304 298 294 294 294 296 299 301
251 267 282 261 238 243 247 246 250 250 239 231 233 244 239 242 242 237 231 221 205 212 230 244 244 248 251 250 245 262 273 280 287 289 292 297 295 288 288 278 276 287 288 290
235 232 225 253 247 227 231 240 239 240 247 238 224 237 239 241 239 229 224 218 217 224 233 241 235 244 249 235 224 240 266 274 280 285 287 289 295 301 294 291 296 294 293 295
239 244 237 256 262 245 238 244 241 233 237 244 239 230 232 236 231 222 222 219 222 226 228 229 229 240 242 229 221 230 252 267 277 281 284 289 294 298 305 312 306 304 306 309
240 247 258 253 252 250 243 246 244 242 241 237 239 232 226 228 228 223 227 226 224 223 222 220 228 242 236 213 217 236 251 259 263 270 276 279 281 285 289 297 307 309 314 314
236 229 239 252 258 254 246 242 246 251 248 247 232 223 216 218 226 232 233 217 200 216 224 221 232 245 223 207 220 234 243 251 256 264 269 272 277 281 283 285 289 297 306 312
239 238 241 246 250 252 246 237 238 247 244 241 235 229 223 221 227 230 218 184 194 226 228 221 231 236 204 207 225 236 241 250 256 260 267 270 273 276 281 284 288 291 294 300
233 245 239 242 245 245 239 235 235 241 239 236 233 228 219 216 226 230 225 211 220 234 229 222 230 224 204 208 217 229 235 248 249 257 258 262 267 268 272 276 279 284 285 291
228 238 237 234 240 243 244 237 233 234 234 232 220 208 209 212 223 229 222 206 226 256 247 228 222 210 204 209 215 222 227 238 245 250 258 262 266 267 269 272 275 280 290 299
231 237 241 240 238 236 239 236 231 228 224 208 203 212 218 221 222 215 190 193 216 241 242 213 217 199 212 220 220 217 225 236 248 255 257 264 268 267 267 270 274 278 285 293
237 237 240 244 240 230 234 236 224 218 211 193 196 208 220 222 206 195 194 219 228 227 212 199 202 203 211 221 221 218 224 232 241 252 256 258 263 268 269 270 273 277 281 283
237 237 236 237 239 234 229 221 208 214 206 189 197 209 215 213 194 186 194 237 241 202 192 191 195 207 211 214 214 217 223 233 241 247 251 256 263 268 270 271 273 276 279 282
233 232 231 225 223 235 232 208 200 199 193 196 202 196 191 199 195 205 224 228 218 184 189 202 206 212 216 210 210 218 228 237 244 248 251 255 259 266 270 273 275 278 279 281
233 227 220 213 213 218 205 196 193 188 193 196 195 195 199 202 192 197 236 219 191 202 204 209 218 218 208 198 210 222 232 240 246 250 254 257 258 261 268 272 275 277 281 282
229 227 217 186 146 157 203 214 188 186 189 192 195 191 182 183 212 220 202 177 189 205 211 218 223 219 198 198 215 227 235 241 247 254 259 261 261 262 265 269 273 276 277 278
208 201 180 164 179 202 201 172 146 156 161 177 186 185 187 189 195 201 184 192 201 201 212 222 224 217 203 212 221 230 238 242 247 252 255 260 263 266 268 269 270 274 277 278
199 196 199 201 203 190 172 167 175 180 174 182 201 189 179 171 159 159 169 184 193 201 207 216 215 215 219 225 231 237 246 254 259 258 258 262 263 265 270 274 275 275 277 279
168 163 162 179 194 181 176 180 184 190 188 186 194 192 180 174 169 171 173 179 188 199 208 216 218 219 226 233 241 246 251 254 258 261 264 264 263 264 269 271 275 276 278 279